WELCOME TO TCFT

Voted One Of The Best Flight Schools In The USA

 

 

BECOME AN AIRLINE PILOT

Treasure Coast Flight Training is committed to serving all of your aviation needs as a full service flight academy, aircraft rental facility, and pilot shop

 

 

Questions About Becoming An Airline Pilot?

 

 

What Our Graduates Say

 

 

The training I received with Treasure Coast Flight Training prepared me to become a professional pilot

 

Nathan Meisner

Pilot - Cessna Caravan - USA

Professional yet relaxed environment. Truly an enjoyable experience to fly with TCFT

 

Sophia

Certified Flight Instructor - China

The training I needed to get me to where I am now!

 

Enderson Rafael

Pilot - Go Airlines - Brazil

Thank you TCFT for making me an airline pilot!

 

Kyle Barrett

Pilot - GoJet Airlines - USA

Current Conditions

 

Metar

 

KSUA 170815Z AUTO 20003KT 10SM CLR 27/23 A3009 RMK AO2 LTG DSNT E AND SE

 

TAF

 

TAF KSUA 170531Z 1706/1806 21003KT P6SM FEW250 FM171400 19007KT P6SM SCT030 SCT250 FM171900 14010KT P6SM VCTS SCT050CB SCT250 TEMPO 1721/1723 3SM TSRA BKN030CB FM180100 20004KT P6SM FEW050 SCT080 BKN150 FM180400 21003KT P6SM BKN250

 

 

Look No Further. Get Started Today